sat.trackr.live / text

‹ back to catalog

BANE

NORAD 58465 · 2023-185D

PAYLOAD ACTIVE UNKNOWN

§ Identity

Operator
Country
US
Launch date
2023-12-01
Launch site
AFWTR
Launch vehicle
Mass (kg)
RCS (m²)

External: N2YO · Heavens-Above · Gunter

§ Orbital elements

Epoch: 2026-06-14T02:39:22.708800Z

Period
87.48 min
Inclination
97.3104°
Eccentricity
0.0013007
Mean motion
16.46170839 rev/d
Perigee alt
140.9 km
Apogee alt
157.9 km
Semi-major
6,527.6 km
B*
3.0011e-4
RAAN
254.5514°
Arg perigee
263.1406°
Mean anomaly
96.8417°
Rev number
14,236

§ Raw data

BANE1 58465U 23185D   26165.11067950  .14997138  25321-5  30011-3 0  99942 58465  97.3104 254.5514 0013007 263.1406  96.8417 16.46170839142369

JSON: /api/v1/satellites/58465 · /tle

For live sub-satellite position, see the globe view (requires WebGL).

§ Visibility from observer

Set your observer location to see the next 7 days of passes ≥ 10°. The values pass through the URL so the page stays shareable.

No JS? Fill the form by hand. The geolocation button needs JavaScript.

§ Radio — SatNOGS DB

ModeDescriptionDownlinkUplink
BPSK S-band telemetry 2.258 GHz
BPSK S-band telemetry 2.244 GHz

2 transmitters · refreshed weekly from db.satnogs.org